SCP
1 2 2 3 3 3 2 1 1 1 1 1 1 1 1 1 0 0 0 0 0 0 0 0 0 0 0 0 0 0 0 0 0 1 1 1 1 1 1 1 1 1 1
1 1 2 3 3 3 2 2 1 1 1 1 1 1 1 1 1 1 1 1 1 1 1 1 0 1 1 1 1 1 0 1 1 1 1 1 1 1 1 1 1 1 1
1 1 2 3 4 4 3 2 1 1 1 1 1 1 1 1 1 1 1 1 1 1 1 1 1 1 1 1 1 1 1 1 1 1 1 2 1 1 1 1 1 1 1
2 2 3 3 4 4 4 2 2 2 1 1 1 1 1 1 1 1 1 1 1 1 1 1 1 1 1 1 1 1 2 2 2 2 2 2 2 1 1 1 1 1 1
2 2 3 3 3 3 3 2 2 2 1 1 1 1 1 1 1 1 1 1 2 2 2 1 1 1 1 1 1 1 1 2 2 2 2 2 2 2 2 2 2 2 2
2 2 2 2 2 2 2 3 3 2 2 2 2 1 1 1 1 1 1 1 2 2 2 1 1 1 1 0 0 0 1 1 2 2 2 2 2 2 2 2 2 2 2
3 3 3 3 2 2 2 3 3 2 2 1 1 1 1 1 0 0 0 1 1 1 1 1 1 1 1 1 1 1 1 1 1 1 2 2 2 2 2 2 2 2 2
3 3 3 3 3 3 2 2 2 2 1 1 1 1 1 1 0 0 0 0 1 1 1 1 1 1 1 1 1 1 1 1 1 1 1 1 1 1 1 2 2 1 1
4 4 4 4 3 2 2 1 1 1 1 1 1 1 1 1 0 0 0 0 1 1 1 1 1 1 1 1 1 1 1 1 1 0 0 0 0 0 1 1 1 1 1
4 4 4 3 2 2 1 1 1 1 1 1 1 1 0 0 0 0 0 0 1 1 1 1 1 1 0 0 0 1 1 1 1 1 0 0 0 0 0 0 0 0 0
3 3 3 2 1 1 1 1 1 1 1 1 0 0 0 0 0 0 0 0 1 1 1 1 0 0 0 0 0 1 1 1 1 1 0 0 0 0 0 0 0 0 0
1 1 1 1 1 0 0 0 0 0 0 0 0 0 0 0 0 0 0 0 0 0 0 0 0 0 0 0 0 0 0 0 0 0 0 0 0 0 0 0 0 0 0
1 1 0 0 0 0 0 0 0 0 0 0 0 0 0 0 0 0 0 0 0 0 0 0 0 0 0 0 0 0 0 0 0 0 0 0 0 1 1 0 0 0 0
0 0 0 0 0 0 0 0 0 0 0 0 0 0 0 0 0 0 0 0 0 0 0 0 0 0 0 0 0 0 0 0 0 0 0 0 1 1 1 0 0 0 0
0 0 0 0 0 0 0 0 0 0 0 0 0 0 0 0 0 0 0 0 0 0 0 0 0 0 0 0 0 0 0 0 0 0 1 1 1 1 1 0 0 0 0
0 0 0 0 0 0 0 0 0 0 0 0 0 0 0 0 0 0 0 0 0 0 0 0 0 0 0 0 0 0 0 0 0 1 1 1 1 1 1 1 0 0 0
0 0 0 0 0 0 0 0 0 0 0 0 0 0 0 0 0 0 0 0 0 0 0 0 0 0 0 0 0 0 0 0 0 1 1 1 1 1 1 1 1 0 0
0 0 0 0 0 0 0 0 0 0 0 0 0 0 0 0 0 0 0 0 0 0 0 0 0 0 0 0 0 0 0 0 0 0 1 1 1 1 1 1 0 0 0
0 0 0 0 0 0 0 0 0 0 0 0 0 0 0 0 0 0 0 0 0 0 0 0 0 0 0 0 0 0 0 0 0 0 0 0 0 0 0 0 0 0 0
0 0 0 0 0 0 0 0 0 0 0 0 0 0 0 0 0 0 0 0 0 0 0 0 0 0 0 0 0 0 0 0 0 0 0 0 0 0 0 0 0 0 0
0 0 0 0 0 0 0 0 0 0 0 0 0 0 0 0 0 0 0 0 0 0 0 0 0 0 0 0 0 0 0 0 0 0 0 0 0 0 0 0 0 0 0
0 0 0 0 0 0 0 0 0 0 0 0 0 0 0 0 0 0 0 0 0 0 0 0 0 0 0 0 0 0 0 0 0 0 0 0 0 0 0 0 0 0 0
0 0 0 0 0 0 0 0 0 0 0 0 0 0 0 0 0 0 0 0 0 0 0 0 0 0 0 0 0 0 0 0 0 0 0 0 0 0 0 0 0 0 0
0 0 0 0 0 0 0 0 0 0 0 0 0 0 0 0 0 0 0 0 0 0 0 0 0 0 0 0 0 0 0 0 0 0 0 0 0 0 0 0 0 0 0
0 0 0 0 0 0 0 0 0 0 0 0 0 0 0 0 0 0 0 0 0 0 0 0 0 0 0 0 0 0 0 0 0 0 0 0 0 0 0 0 0 0 0
0 0 0 0 0 0 0 0 0 0 0 0 0 0 0 0 0 0 0 0 0 0 0 0 0 0 0 0 0 0 0 0 0 0 0 0 0 0 0 0 0 0 0
Wind_Speed
10 9 9 9 9 8 7 7 7 7 7 8 8 8 7 7 7 7 6 5 6 5 5 5 5 5 4 4 4 4 4 5 5 5 3 3 4 7 5 6 7 8 9
10 9 9 8 8 8 8 8 8 8 8 8 8 8 8 8 8 8 8 7 7 7 7 6 6 5 6 6 5 6 5 4 6 7 5 5 6 7 7 7 8 8 8
10 10 9 9 9 8 7 7 8 8 7 7 7 8 7 7 7 8 8 7 8 7 7 7 7 7 7 6 6 6 5 6 6 7 7 5 5 5 6 8 9 7 9
10 10 9 9 8 7 7 7 7 7 7 7 6 6 6 6 6 7 7 7 7 6 6 5 5 5 5 5 5 5 6 6 6 7 7 6 6 6 6 7 7 6 7
10 9 9 8 8 7 6 6 5 5 5 5 4 4 4 4 3 5 6 6 5 5 4 3 1 2 4 3 3 3 4 5 6 6 7 7 6 5 6 6 8 8 8
10 9 8 8 7 7 6 5 5 4 3 2 2 2 1 1 4 3 2 2 1 1 1 1 1 3 3 2 3 4 5 5 6 6 6 6 6 6 6 7 8 9 9
10 9 8 7 7 6 6 6 5 4 4 4 4 4 5 6 7 5 3 2 3 3 2 1 1 3 2 1 0 1 0 1 3 5 7 6 6 6 7 9 9 10 11
9 8 8 7 7 6 6 6 6 6 6 6 6 6 7 8 8 7 5 4 4 4 4 3 3 3 4 4 2 1 1 1 2 3 5 6 6 7 7 9 11 12 12
9 8 8 8 8 8 8 8 7 7 7 7 7 8 8 9 10 8 4 3 4 5 4 4 3 3 6 6 3 3 3 3 3 3 4 6 7 7 7 8 9 10 11
9 8 8 8 9 10 9 8 8 8 8 8 9 9 9 9 11 10 7 2 3 3 3 4 8 7 7 7 5 5 5 5 7 6 5 7 8 7 8 7 9 10 11
10 10 10 10 10 11 10 8 8 8 9 9 9 9 9 9 10 12 11 5 4 3 2 2 6 7 5 5 6 5 5 8 9 8 8 7 6 6 6 6 6 8 10
11 12 11 10 10 10 10 9 9 9 9 9 8 7 7 7 8 9 10 9 7 4 3 4 5 4 4 5 4 4 6 9 8 7 7 7 7 6 6 7 8 9 10
12 12 11 11 10 9 9 9 8 6 5 5 5 5 5 5 6 6 6 5 5 4 4 4 2 3 6 5 4 5 8 7 7 7 8 7 7 8 8 8 9 9 11
12 11 11 11 10 9 6 6 6 5 4 4 4 4 4 4 5 4 2 2 1 1 2 2 7 8 7 5 5 4 5 5 7 8 8 8 8 8 8 8 9 9 10
11 10 10 10 10 9 10 9 8 10 8 5 5 4 4 5 8 10 8 7 7 7 8 6 4 4 5 5 5 5 6 6 6 7 7 8 8 8 8 8 8 9 10
9 8 7 7 7 7 9 10 16 13 14 16 15 10 10 10 6 6 6 5 5 8 9 5 5 6 6 7 7 7 6 7 7 8 8 8 9 9 9 9 9 10 10
8 7 6 6 6 6 6 7 8 9 12 13 12 12 10 6 5 4 4 6 7 9 6 5 5 6 7 7 7 7 8 8 8 8 8 8 8 9 9 9 9 9 10
8 7 5 5 5 4 4 4 4 5 6 7 8 8 6 4 2 3 6 8 3 2 5 6 6 6 7 7 7 8 8 8 8 8 9 9 9 9 10 10 10 11 11
6 6 5 5 4 5 4 4 4 4 4 4 4 6 4 4 5 3 6 5 6 6 6 6 6 7 7 7 7 8 8 9 9 9 9 9 9 10 10 10 10 12 12
7 8 4 4 4 4 4 3 3 3 3 3 3 4 2 2 1 2 3 5 6 6 6 6 6 7 7 7 7 8 8 9 9 9 9 9 9 10 11 12 11 11 10
6 6 4 3 4 4 3 3 3 3 3 3 4 6 5 5 4 5 4 5 5 6 6 7 7 7 7 7 7 9 10 9 9 9 9 10 10 10 10 10 11 11 11
4 4 4 4 4 3 3 3 3 3 3 3 2 4 1 4 4 5 5 5 5 6 6 6 7 7 7 7 8 8 9 9 9 10 11 11 11 11 11 11 11 11 11
3 4 4 4 4 3 2 3 3 3 3 3 3 3 2 3 4 4 5 5 5 6 6 6 7 7 7 8 8 8 8 9 10 12 13 12 11 11 11 11 13 13 12
4 4 4 3 3 3 3 3 3 3 3 3 3 3 3 3 4 5 5 5 6 6 6 6 7 9 12 10 8 8 8 10 13 12 15 13 13 12 11 11 12 13 13
4 4 4 3 3 3 3 3 3 3 3 3 3 3 4 4 4 4 5 5 7 7 8 8 6 8 12 13 12 11 10 10 10 12 12 12 13 13 12 13 12 13 13
4 4 3 3 3 3 3 2 3 3 3 3 3 3 4 4 4 5 5 6 7 7 7 7 9 11 12 10 13 13 10 10 10 11 12 11 12 11 12 11 14 13 14
Wind_Direction
172 172 171 174 176 178 185 189 187 191 192 199 202 205 206 205 205 210 227 205 217 218 221 222 228 261 255 248 241 246 248 257 267 271 249 229 236 267 259 258 257 249 236
169 171 174 173 175 182 186 190 193 196 203 205 208 210 213 212 210 214 223 219 221 225 225 227 232 226 229 254 255 251 253 260 264 272 274 254 232 244 255 263 265 257 266
168 171 174 176 180 187 189 193 197 201 207 210 211 215 218 220 218 220 224 225 227 230 230 230 234 237 236 242 246 254 254 247 250 265 267 272 265 257 260 258 261 264 269
168 171 175 178 179 184 187 193 197 203 207 209 212 216 218 221 222 225 225 227 230 232 236 238 240 241 245 250 248 255 266 269 260 263 270 269 263 261 262 269 270 257 267
169 172 173 171 170 175 177 183 191 202 206 203 205 210 216 224 236 237 235 230 224 225 222 225 233 51 28 343 307 293 282 273 273 273 276 282 285 297 290 296 292 294 282
168 168 166 165 166 167 168 171 172 171 171 160 154 139 99 29 42 29 281 245 192 185 166 137 111 85 70 59 19 5 344 301 294 291 286 293 302 306 307 299 298 294 291
161 160 157 158 160 157 155 149 142 131 114 100 94 92 80 57 58 68 73 98 98 94 96 90 77 63 42 32 115 207 9 9 322 301 300 311 313 319 315 299 294 293 292
149 144 140 144 141 135 128 116 108 102 98 96 92 88 83 64 57 67 75 95 87 82 80 81 77 51 31 357 335 338 307 293 289 290 311 307 311 318 305 293 291 282 273
130 128 127 129 124 117 108 104 102 104 103 100 93 88 82 65 49 48 42 96 92 86 78 67 60 67 35 355 327 322 309 296 211 216 265 280 287 282 286 290 287 285 286
118 115 112 111 111 108 104 103 104 105 103 99 90 83 80 72 52 40 15 70 86 91 97 97 68 46 33 359 332 324 315 322 319 304 275 260 263 258 235 257 283 289 292
109 104 101 101 103 103 103 104 107 105 101 97 94 89 81 73 65 45 25 29 33 32 37 45 70 54 25 354 322 327 338 315 296 288 284 283 280 279 273 271 279 286 291
104 101 99 100 101 103 104 102 103 109 111 108 104 99 92 82 65 58 49 41 11 24 17 24 53 34 343 314 316 346 312 291 287 295 297 299 302 304 308 307 299 290 283
100 99 99 98 96 101 105 108 110 111 108 109 109 104 99 94 96 90 79 61 23 10 31 56 3 284 284 262 216 261 281 288 307 307 307 311 316 318 311 300 290 283 277
103 102 102 100 97 90 89 91 88 84 91 97 93 92 96 85 54 35 36 62 150 329 348 224 218 232 252 283 288 266 291 321 320 311 312 313 311 307 303 304 304 305 299
103 104 103 98 93 85 70 49 54 53 37 36 54 56 45 66 46 23 5 10 359 3 325 303 312 329 325 332 331 333 326 322 316 316 312 310 307 305 303 304 302 300 297
108 109 108 107 106 108 106 89 57 64 65 59 49 50 69 68 66 43 30 12 342 320 305 323 343 341 337 336 331 329 327 327 325 318 313 311 310 309 309 310 306 302 301
95 96 102 106 113 116 120 122 116 96 82 75 69 65 70 75 60 27 347 315 287 288 306 354 351 347 340 335 332 332 331 331 324 316 315 315 313 309 306 304 303 302 301
100 94 95 99 100 99 100 106 114 124 124 112 102 97 98 97 68 348 316 302 291 313 358 358 351 346 339 335 334 331 327 323 321 320 317 315 313 312 311 310 309 308 306
93 93 89 92 96 94 95 94 90 89 89 94 111 123 148 177 192 235 295 341 1 360 359 355 348 342 337 334 331 326 322 320 321 318 314 315 314 312 310 309 307 305 300
86 68 73 99 100 101 98 92 89 89 87 78 66 50 27 313 351 23 357 2 353 356 354 348 343 335 331 330 326 324 320 318 319 317 318 317 315 311 308 305 303 302 300
103 106 115 95 82 78 79 77 74 67 66 62 70 66 350 329 3 5 357 359 355 351 350 342 335 334 336 334 331 326 321 320 322 321 319 317 314 310 307 304 302 300 299
96 95 87 80 83 70 62 69 66 63 55 40 57 108 188 310 358 1 358 356 353 346 346 341 335 338 341 337 329 324 321 321 325 325 320 315 310 306 305 302 301 302 301
93 96 96 90 90 100 83 67 60 47 40 35 26 20 15 356 352 357 351 349 346 341 342 338 332 335 342 334 326 321 320 328 330 323 314 308 306 305 303 301 301 302 301
87 87 85 86 84 85 79 73 66 54 40 29 20 5 1 358 352 355 345 346 342 339 341 336 333 335 337 334 327 326 346 345 328 312 309 304 301 299 300 300 299 298 298
94 86 83 78 78 78 72 63 55 39 30 24 17 4 0 355 352 351 346 345 339 338 338 334 335 337 336 333 337 343 350 325 309 312 307 299 297 298 299 301 301 302 302
87 86 86 85 77 65 63 58 50 37 29 23 14 8 356 348 349 349 345 344 338 336 334 332 336 336 332 336 349 341 321 312 310 305 300 295 295 298 306 305 305 304 303